Time,TemperatureF,DewpointF,PressureIn,WindDirection,WindDirectionDegrees,WindSpeedMPH,WindSpeedGustMPH,Humidity,HourlyPrecipIn,Conditions,Clouds,dailyrainin,SoftwareType,DateUTC
2013-04-17 00:03:00,63.5,56.5,30.27,North,0,3.1,3.1,78,0.00,,BKN075,0.00,VWS V14.01,2013-04-17 04:03:00,
2013-04-17 00:08:00,63.1,56.5,30.27,NNE,22,0.0,0.0,79,0.00,,BKN075,0.00,VWS V14.01,2013-04-17 04:08:00,
2013-04-17 00:13:00,62.8,56.2,30.27,NW,315,2.5,3.1,79,0.00,,BKN075,0.00,VWS V14.01,2013-04-17 04:13:00,
2013-04-17 00:18:00,62.6,56.3,30.27,NW,315,2.5,2.7,80,0.00,,BKN075,0.00,VWS V14.01,2013-04-17 04:18:00,
2013-04-17 00:23:00,62.2,56.7,30.27,SSW,202,0.0,1.1,82,0.00,,BKN075,0.00,VWS V14.01,2013-04-17 04:23:00,
2013-04-17 00:28:00,62.1,56.5,30.27,NW,315,0.0,0.9,82,0.00,,BKN075,0.00,VWS V14.01,2013-04-17 04:28:00,
2013-04-17 00:33:00,61.7,56.8,30.30,NNE,22,1.3,1.3,84,0.00,,BKN075,0.00,VWS V14.01,2013-04-17 04:33:00,
2013-04-17 00:38:00,61.3,57.1,30.30,East,90,2.9,2.9,86,0.03,,BKN075,0.03,VWS V14.01,2013-04-17 04:38:00,
2013-04-17 00:43:00,61.0,58.0,30.30,ENE,68,2.7,2.7,90,0.03,,BKN075,0.03,VWS V14.01,2013-04-17 04:43:00,
2013-04-17 00:48:00,60.8,57.8,30.24,WSW,248,0.0,0.0,90,0.08,,BKN075,0.08,VWS V14.01,2013-04-17 04:48:00,
2013-04-17 00:53:00,60.6,57.4,30.24,SSW,202,1.6,1.6,89,0.08,,BKN075,0.08,VWS V14.01,2013-04-17 04:53:00,
2013-04-17 00:58:00,60.4,57.5,30.24,South,180,0.0,0.0,90,0.08,,BKN075,0.00,VWS V14.01,2013-04-17 04:58:00,
2013-04-17 01:03:00,60.4,58.1,30.27,SE,135,0.0,0.0,92,0.08,,OVC060,0.00,VWS V14.01,2013-04-17 05:03:00,
2013-04-17 01:08:00,60.3,57.9,30.27,SE,135,3.1,3.1,92,0.08,,OVC060,0.00,VWS V14.01,2013-04-17 05:08:00,
2013-04-17 01:13:00,60.4,59.0,30.27,South,180,2.9,3.6,95,0.08,,OVC060,0.00,VWS V14.01,2013-04-17 05:13:00,
2013-04-17 01:18:00,60.3,59.4,30.27,South,180,3.8,3.8,97,0.08,,OVC060,0.00,VWS V14.01,2013-04-17 05:18:00,
2013-04-17 01:23:00,60.1,59.2,30.27,SW,225,0.0,0.0,97,0.08,,OVC060,0.00,VWS V14.01,2013-04-17 05:23:00,
2013-04-17 01:28:00,60.1,58.9,30.27,SW,225,2.5,2.5,96,0.08,,OVC060,0.00,VWS V14.01,2013-04-17 05:28:00,
2013-04-17 01:33:00,59.7,58.6,30.24,SSW,202,2.0,2.0,96,0.08,,OVC060,0.00,VWS V14.01,2013-04-17 05:33:00,
2013-04-17 01:38:00,59.7,58.9,30.24,SW,225,2.2,2.2,97,0.05,,OVC060,0.00,VWS V14.01,2013-04-17 05:38:00,
2013-04-17 01:43:00,59.5,58.7,30.24,SSW,202,0.9,2.9,97,0.05,,OVC060,0.00,VWS V14.01,2013-04-17 05:43:00,
2013-04-17 01:48:00,59.2,58.0,30.21,WSW,248,0.9,0.9,96,0.00,,OVC060,0.00,VWS V14.01,2013-04-17 05:48:00,
2013-04-17 01:53:00,59.0,57.9,30.21,SE,135,0.0,0.9,96,0.00,,OVC060,0.00,VWS V14.01,2013-04-17 05:53:00,
2013-04-17 01:58:00,59.2,58.0,30.21,SE,135,0.0,0.0,96,0.00,,OVC060,0.00,VWS V14.01,2013-04-17 05:58:00,
2013-04-17 02:03:00,59.2,58.0,30.21,ESE,112,0.0,0.0,96,0.00,,-RA,0.00,VWS V14.01,2013-04-17 06:03:00,
2013-04-17 02:08:00,59.0,57.9,30.21,East,90,0.0,0.0,96,0.00,,-RA,0.00,VWS V14.01,2013-04-17 06:08:00,
2013-04-17 02:13:00,59.0,57.9,30.21,SW,225,0.0,0.0,96,0.00,,-RA,0.00,VWS V14.01,2013-04-17 06:13:00,
2013-04-17 02:18:00,58.6,57.5,30.21,SW,225,0.0,0.0,96,0.00,,-RA,0.00,VWS V14.01,2013-04-17 06:18:00,
2013-04-17 02:23:00,58.5,57.3,30.21,NW,315,0.0,0.0,96,0.00,,-RA,0.00,VWS V14.01,2013-04-17 06:23:00,
2013-04-17 02:28:00,58.8,57.7,30.21,NNE,22,1.3,1.3,96,0.00,,-RA,0.00,VWS V14.01,2013-04-17 06:28:00,
2013-04-17 02:33:00,59.0,57.9,30.24,ENE,68,0.0,0.0,96,0.00,,-RA,0.00,VWS V14.01,2013-04-17 06:33:00,
2013-04-17 02:38:00,59.2,58.0,30.24,NNE,22,0.0,0.0,96,0.00,,-RA,0.00,VWS V14.01,2013-04-17 06:38:00,
2013-04-17 02:43:00,59.4,58.5,30.24,ESE,112,4.3,4.3,97,0.00,,-RA,0.00,VWS V14.01,2013-04-17 06:43:00,
2013-04-17 02:48:00,59.5,59.0,30.24,South,180,4.7,4.7,98,0.04,,-RA,0.04,VWS V14.01,2013-04-17 06:48:00,
2013-04-17 02:53:00,59.7,59.2,30.24,ESE,112,7.6,8.7,98,0.04,,-RA,0.04,VWS V14.01,2013-04-17 06:53:00,
2013-04-17 02:58:00,59.5,59.0,30.24,South,180,1.3,1.6,98,0.04,,-RA,0.04,VWS V14.01,2013-04-17 06:58:00,
2013-04-17 03:03:00,59.7,59.2,30.18,SW,225,4.3,4.3,98,0.08,,-RA,0.08,VWS V14.01,2013-04-17 07:03:00,
2013-04-17 03:08:00,59.7,59.2,30.18,SSE,158,3.8,3.8,98,0.08,,-RA,0.08,VWS V14.01,2013-04-17 07:08:00,
2013-04-17 03:13:00,59.7,59.2,30.18,South,180,2.2,2.2,98,0.08,,-RA,0.08,VWS V14.01,2013-04-17 07:13:00,
2013-04-17 03:18:00,59.7,59.2,30.21,SE,135,1.1,1.1,98,0.08,,-RA,0.08,VWS V14.01,2013-04-17 07:18:00,
2013-04-17 03:23:00,59.7,59.2,30.21,East,90,2.0,2.0,98,0.08,,-RA,0.08,VWS V14.01,2013-04-17 07:23:00,
2013-04-17 03:28:00,59.7,59.2,30.21,North,0,2.9,2.9,98,0.08,,-RA,0.08,VWS V14.01,2013-04-17 07:28:00,
2013-04-17 03:33:00,59.7,59.2,30.27,East,90,2.5,2.5,98,0.08,,-RA,0.08,VWS V14.01,2013-04-17 07:33:00,
2013-04-17 03:38:00,59.7,59.2,30.27,NE,45,0.0,0.0,98,0.08,,-RA,0.08,VWS V14.01,2013-04-17 07:38:00,
2013-04-17 03:43:00,59.7,59.2,30.27,ESE,112,1.3,1.3,98,0.08,,-RA,0.08,VWS V14.01,2013-04-17 07:43:00,
2013-04-17 03:48:00,59.7,59.2,30.24,East,90,0.0,0.0,98,0.04,,-RA,0.08,VWS V14.01,2013-04-17 07:48:00,
2013-04-17 03:53:00,59.7,59.2,30.24,ENE,68,0.0,0.0,98,0.04,,-RA,0.08,VWS V14.01,2013-04-17 07:53:00,
2013-04-17 03:58:00,59.5,59.0,30.24,SW,225,2.5,2.7,98,0.08,,-RA,0.12,VWS V14.01,2013-04-17 07:58:00,
2013-04-17 04:03:00,59.5,59.0,30.24,WSW,248,1.6,2.9,98,0.08,,-RA,0.12,VWS V14.01,2013-04-17 08:03:00,
2013-04-17 04:08:00,59.7,59.2,30.24,East,90,2.7,2.7,98,0.08,,-RA,0.16,VWS V14.01,2013-04-17 08:08:00,
2013-04-17 04:13:00,59.7,59.2,30.24,NE,45,1.1,2.7,98,0.08,,-RA,0.16,VWS V14.01,2013-04-17 08:13:00,
2013-04-17 04:18:00,59.5,59.0,30.24,East,90,0.9,0.9,98,0.08,,-RA,0.16,VWS V14.01,2013-04-17 08:18:00,
2013-04-17 04:23:00,59.5,59.0,30.24,NE,45,3.1,3.8,98,0.08,,-RA,0.16,VWS V14.01,2013-04-17 08:23:00,
2013-04-17 04:28:00,59.7,59.2,30.24,East,90,4.7,4.7,98,0.08,,-RA,0.16,VWS V14.01,2013-04-17 08:28:00,
2013-04-17 04:33:00,60.1,59.5,30.24,ESE,112,2.0,2.5,98,0.08,,-RA,0.16,VWS V14.01,2013-04-17 08:33:00,
2013-04-17 04:38:00,60.1,59.5,30.24,North,0,0.0,7.8,98,0.08,,-RA,0.16,VWS V14.01,2013-04-17 08:38:00,
2013-04-17 04:43:00,59.9,59.3,30.24,South,180,5.6,6.0,98,0.12,,-RA,0.20,VWS V14.01,2013-04-17 08:43:00,
2013-04-17 04:48:00,60.1,59.5,30.21,South,180,3.8,3.8,98,0.12,,-RA,0.20,VWS V14.01,2013-04-17 08:48:00,
2013-04-17 04:53:00,60.1,59.5,30.21,ESE,112,1.3,1.3,98,0.12,,-RA,0.20,VWS V14.01,2013-04-17 08:53:00,
2013-04-17 04:58:00,59.9,59.0,30.21,West,270,1.1,4.5,97,0.12,,-RA,0.20,VWS V14.01,2013-04-17 08:58:00,
2013-04-17 05:03:00,59.7,58.9,30.24,East,90,3.1,3.1,97,0.08,,-RA,0.20,VWS V14.01,2013-04-17 09:03:00,
2013-04-17 05:08:00,59.5,58.7,30.24,East,90,1.3,2.2,97,0.04,,-RA,0.20,VWS V14.01,2013-04-17 09:08:00,
2013-04-17 05:13:00,59.5,58.7,30.24,South,180,2.5,3.1,97,0.04,,-RA,0.20,VWS V14.01,2013-04-17 09:13:00,
2013-04-17 05:18:00,59.5,58.7,30.24,East,90,1.6,3.1,97,0.04,,-RA,0.20,VWS V14.01,2013-04-17 09:18:00,
2013-04-17 05:23:00,59.5,58.7,30.24,SSW,202,2.0,2.9,97,0.04,,-RA,0.20,VWS V14.01,2013-04-17 09:23:00,
2013-04-17 05:28:00,59.7,59.2,30.24,NNE,22,3.1,3.1,98,0.04,,-RA,0.20,VWS V14.01,2013-04-17 09:28:00,
2013-04-17 05:33:00,59.5,59.0,30.21,South,180,0.0,0.9,98,0.04,,-RA,0.20,VWS V14.01,2013-04-17 09:33:00,
2013-04-17 05:38:00,59.7,59.2,30.21,South,180,2.2,2.2,98,0.04,,-RA,0.20,VWS V14.01,2013-04-17 09:38:00,
2013-04-17 05:43:00,59.7,59.2,30.21,East,90,1.3,1.3,98,0.00,,-RA,0.20,VWS V14.01,2013-04-17 09:43:00,
2013-04-17 05:48:00,59.5,59.0,30.24,NNE,22,0.9,0.9,98,0.00,,-RA,0.20,VWS V14.01,2013-04-17 09:48:00,
2013-04-17 05:53:00,59.4,58.8,30.24,ESE,112,2.0,2.7,98,0.00,,-RA,0.20,VWS V14.01,2013-04-17 09:53:00,
2013-04-17 05:58:00,59.2,58.3,30.24,South,180,1.1,1.1,97,0.00,,-RA,0.20,VWS V14.01,2013-04-17 09:58:00,
2013-04-17 06:03:00,59.2,58.3,30.24,SE,135,0.0,0.0,97,0.05,,-RA,0.25,VWS V14.01,2013-04-17 10:03:00,
2013-04-17 06:08:00,59.2,58.3,30.24,SSE,158,1.6,1.6,97,0.05,,-RA,0.25,VWS V14.01,2013-04-17 10:08:00,
2013-04-17 06:13:00,59.0,58.2,30.24,SE,135,1.1,1.1,97,0.05,,-RA,0.25,VWS V14.01,2013-04-17 10:13:00,
2013-04-17 06:18:00,58.8,58.0,30.24,SSE,158,2.7,2.7,97,0.05,,-RA,0.25,VWS V14.01,2013-04-17 10:18:00,
2013-04-17 06:23:00,58.5,57.9,30.24,SE,135,0.0,0.0,98,0.05,,-RA,0.25,VWS V14.01,2013-04-17 10:23:00,
2013-04-17 06:28:00,57.9,57.1,30.24,SE,135,0.0,0.0,97,0.05,,-RA,0.25,VWS V14.01,2013-04-17 10:28:00,
2013-04-17 06:33:00,57.4,56.2,30.21,SE,135,0.0,0.0,96,0.05,,-RA,0.25,VWS V14.01,2013-04-17 10:33:00,
2013-04-17 06:38:00,56.8,55.7,30.21,SE,135,0.0,0.0,96,0.05,,-RA,0.25,VWS V14.01,2013-04-17 10:38:00,
2013-04-17 06:43:00,56.5,55.4,30.21,SE,135,0.0,0.0,96,0.05,,-RA,0.25,VWS V14.01,2013-04-17 10:43:00,
2013-04-17 06:48:00,56.1,54.7,30.24,SE,135,0.0,0.0,95,0.05,,-RA,0.25,VWS V14.01,2013-04-17 10:48:00,
2013-04-17 06:53:00,55.9,54.8,30.24,SE,135,0.0,0.0,96,0.05,,-RA,0.25,VWS V14.01,2013-04-17 10:53:00,
2013-04-17 06:58:00,55.9,55.1,30.24,SE,135,0.0,0.0,97,0.05,,-RA,0.25,VWS V14.01,2013-04-17 10:58:00,
2013-04-17 07:03:00,55.8,54.9,30.24,SE,135,0.0,0.0,97,0.00,,OVC110,0.25,VWS V14.01,2013-04-17 11:03:00,
2013-04-17 07:08:00,55.6,54.8,30.24,NE,45,0.0,0.0,97,0.00,,OVC110,0.25,VWS V14.01,2013-04-17 11:08:00,
2013-04-17 07:13:00,55.6,54.8,30.24,SW,225,0.0,0.0,97,0.00,,OVC110,0.25,VWS V14.01,2013-04-17 11:13:00,
2013-04-17 07:18:00,55.6,54.8,30.24,SW,225,0.0,0.0,97,0.00,,OVC110,0.25,VWS V14.01,2013-04-17 11:18:00,
2013-04-17 07:23:00,55.8,55.2,30.24,SE,135,0.0,0.0,98,0.00,,OVC110,0.25,VWS V14.01,2013-04-17 11:23:00,
2013-04-17 07:28:00,55.9,55.4,30.24,SE,135,0.0,0.0,98,0.00,,OVC110,0.25,VWS V14.01,2013-04-17 11:28:00,
2013-04-17 07:33:00,56.3,55.8,30.24,SW,225,0.0,0.0,98,0.00,,OVC110,0.25,VWS V14.01,2013-04-17 11:33:00,
2013-04-17 07:38:00,56.3,55.8,30.24,WSW,248,0.0,0.0,98,0.00,,OVC110,0.25,VWS V14.01,2013-04-17 11:38:00,
2013-04-17 07:43:00,56.5,55.9,30.24,SSW,202,0.0,0.0,98,0.00,,OVC110,0.25,VWS V14.01,2013-04-17 11:43:00,
2013-04-17 07:48:00,56.8,56.3,30.27,SSE,158,2.2,2.2,98,0.00,,OVC110,0.25,VWS V14.01,2013-04-17 11:48:00,
2013-04-17 07:53:00,57.0,56.5,30.27,SE,135,2.7,3.1,98,0.00,,OVC110,0.25,VWS V14.01,2013-04-17 11:53:00,
2013-04-17 07:58:00,57.0,56.5,30.27,South,180,1.1,1.3,98,0.00,,OVC110,0.25,VWS V14.01,2013-04-17 11:58:00,
2013-04-17 08:03:00,57.0,56.5,30.24,NW,315,0.0,0.0,98,0.00,,SCT100,0.25,VWS V14.01,2013-04-17 12:03:00,
2013-04-17 08:08:00,56.8,56.3,30.24,NNW,338,0.0,0.0,98,0.00,,SCT100,0.25,VWS V14.01,2013-04-17 12:08:00,
2013-04-17 08:13:00,56.7,56.1,30.24,NNE,22,0.0,0.0,98,0.00,,SCT100,0.25,VWS V14.01,2013-04-17 12:13:00,
2013-04-17 08:18:00,56.8,56.3,30.24,ENE,68,0.0,0.0,98,0.00,,SCT100,0.25,VWS V14.01,2013-04-17 12:18:00,
2013-04-17 08:23:00,56.8,56.3,30.24,SSE,158,2.5,2.5,98,0.00,,SCT100,0.25,VWS V14.01,2013-04-17 12:23:00,
2013-04-17 08:28:00,56.8,56.3,30.24,SE,135,2.5,2.5,98,0.00,,SCT100,0.25,VWS V14.01,2013-04-17 12:28:00,
2013-04-17 08:33:00,57.0,56.5,30.27,SSE,158,2.0,2.5,98,0.00,,SCT100,0.25,VWS V14.01,2013-04-17 12:33:00,
2013-04-17 08:38:00,57.2,56.6,30.27,SE,135,1.6,1.6,98,0.00,,SCT100,0.25,VWS V14.01,2013-04-17 12:38:00,
2013-04-17 08:43:00,57.2,56.6,30.27,ESE,112,0.0,0.0,98,0.00,,SCT100,0.25,VWS V14.01,2013-04-17 12:43:00,
2013-04-17 08:47:00,57.2,56.6,30.27,NE,45,0.0,0.0,98,0.00,,SCT100,0.25,VWS V14.01,2013-04-17 12:47:00,
2013-04-17 08:52:00,57.2,56.6,30.27,SSW,202,0.0,0.0,98,0.00,,SCT100,0.25,VWS V14.01,2013-04-17 12:52:00,
2013-04-17 08:57:00,57.9,57.4,30.27,SE,135,3.4,4.0,98,0.00,,SCT100,0.25,VWS V14.01,2013-04-17 12:57:00,
2013-04-17 09:02:00,57.9,57.4,30.27,NNE,22,2.2,3.4,98,0.00,,CLR,0.25,VWS V14.01,2013-04-17 13:02:00,
2013-04-17 09:07:00,57.9,57.4,30.27,NE,45,0.0,2.2,98,0.00,,CLR,0.25,VWS V14.01,2013-04-17 13:07:00,
2013-04-17 09:12:00,58.1,57.5,30.27,NE,45,0.0,0.0,98,0.00,,CLR,0.25,VWS V14.01,2013-04-17 13:12:00,
2013-04-17 09:17:00,58.1,57.5,30.30,SW,225,0.0,0.0,98,0.00,,CLR,0.25,VWS V14.01,2013-04-17 13:17:00,
2013-04-17 09:22:00,58.1,57.5,30.30,SW,225,0.0,0.0,98,0.00,,CLR,0.25,VWS V14.01,2013-04-17 13:22:00,
2013-04-17 09:27:00,58.5,57.9,30.30,SE,135,0.0,0.0,98,0.00,,CLR,0.25,VWS V14.01,2013-04-17 13:27:00,
2013-04-17 09:32:00,58.6,58.1,30.27,SSE,158,0.0,0.0,98,0.00,,CLR,0.25,VWS V14.01,2013-04-17 13:32:00,
2013-04-17 09:37:00,59.0,58.4,30.27,SSE,158,1.6,3.1,98,0.00,,CLR,0.25,VWS V14.01,2013-04-17 13:37:00,
2013-04-17 09:42:00,59.2,58.6,30.27,SSE,158,3.6,3.6,98,0.00,,CLR,0.25,VWS V14.01,2013-04-17 13:42:00,
2013-04-17 09:47:00,59.4,58.8,30.27,SE,135,3.6,4.3,98,0.00,,CLR,0.25,VWS V14.01,2013-04-17 13:47:00,
2013-04-17 09:52:00,59.5,59.0,30.27,SSW,202,3.4,6.5,98,0.00,,CLR,0.25,VWS V14.01,2013-04-17 13:52:00,
2013-04-17 09:57:00,59.7,59.2,30.27,SE,135,1.3,4.3,98,0.00,,CLR,0.00,VWS V14.01,2013-04-17 13:57:00,
2013-04-17 10:02:00,59.7,59.2,30.27,SSW,202,2.7,3.8,98,0.00,,SCT120,0.25,VWS V14.01,2013-04-17 14:02:00,
2013-04-17 10:07:00,59.9,59.3,30.27,SSE,158,4.3,6.0,98,0.04,,SCT120,0.29,VWS V14.01,2013-04-17 14:07:00,
2013-04-17 10:12:00,60.1,59.5,30.27,South,180,2.0,7.8,98,0.04,,SCT120,0.29,VWS V14.01,2013-04-17 14:12:00,
2013-04-17 10:17:00,60.1,59.5,30.27,SE,135,3.1,4.9,98,0.04,,SCT120,0.29,VWS V14.01,2013-04-17 14:17:00,
2013-04-17 10:22:00,60.3,59.7,30.27,ESE,112,12.8,12.8,98,0.04,,SCT120,0.29,VWS V14.01,2013-04-17 14:22:00,
2013-04-17 10:27:00,60.4,59.3,30.27,SE,135,7.6,12.8,96,0.04,,SCT120,0.29,VWS V14.01,2013-04-17 14:27:00,
2013-04-17 10:32:00,60.4,59.3,30.27,SW,225,2.5,8.5,96,0.04,,SCT120,0.29,VWS V14.01,2013-04-17 14:32:00,
2013-04-17 10:37:00,60.4,59.0,30.27,SW,225,2.9,5.8,95,0.04,,SCT120,0.29,VWS V14.01,2013-04-17 14:37:00,
2013-04-17 10:42:00,60.4,58.7,30.27,South,180,6.3,9.4,94,0.04,,SCT120,0.29,VWS V14.01,2013-04-17 14:42:00,
2013-04-17 10:47:00,60.4,58.7,30.30,SW,225,2.7,7.2,94,0.04,,SCT120,0.29,VWS V14.01,2013-04-17 14:47:00,
2013-04-17 10:52:00,60.6,58.9,30.30,West,270,3.4,7.6,94,0.04,,SCT120,0.29,VWS V14.01,2013-04-17 14:52:00,
2013-04-17 10:57:00,60.6,58.9,30.30,East,90,3.1,5.4,94,0.04,,SCT120,0.29,VWS V14.01,2013-04-17 14:57:00,
2013-04-17 11:02:00,60.6,58.9,30.30,South,180,1.3,4.9,94,0.04,,-RA,0.29,VWS V14.01,2013-04-17 15:02:00,
2013-04-17 11:07:00,60.8,58.8,30.30,SE,135,2.7,6.7,93,0.04,,-RA,0.29,VWS V14.01,2013-04-17 15:07:00,
2013-04-17 11:12:00,61.0,59.0,30.30,South,180,2.2,3.4,93,0.00,,-RA,0.29,VWS V14.01,2013-04-17 15:12:00,
2013-04-17 11:17:00,61.2,59.1,30.33,SW,225,3.4,4.0,93,0.00,,-RA,0.29,VWS V14.01,2013-04-17 15:17:00,
2013-04-17 11:22:00,61.5,59.5,30.33,South,180,3.1,4.3,93,0.00,,-RA,0.29,VWS V14.01,2013-04-17 15:22:00,
2013-04-17 11:27:00,61.7,59.7,30.33,South,180,3.4,3.6,93,0.00,,-RA,0.29,VWS V14.01,2013-04-17 15:27:00,
2013-04-17 11:32:00,61.9,59.5,30.30,SE,135,3.4,3.6,92,0.00,,-RA,0.29,VWS V14.01,2013-04-17 15:32:00,
2013-04-17 11:37:00,62.2,59.9,30.30,SW,225,2.0,4.0,92,0.00,,-RA,0.29,VWS V14.01,2013-04-17 15:37:00,
2013-04-17 11:42:00,62.8,60.1,30.30,SW,225,0.0,2.9,91,0.00,,-RA,0.29,VWS V14.01,2013-04-17 15:42:00,
2013-04-17 11:47:00,62.6,58.7,30.30,South,180,1.3,2.9,87,0.00,,-RA,0.29,VWS V14.01,2013-04-17 15:47:00,
2013-04-17 11:52:00,63.0,59.0,30.30,South,180,3.6,3.6,87,0.00,,-RA,0.29,VWS V14.01,2013-04-17 15:52:00,
2013-04-17 11:57:00,62.6,58.7,30.30,SE,135,6.3,6.3,87,0.00,,-RA,0.29,VWS V14.01,2013-04-17 15:57:00,
2013-04-17 12:02:00,62.6,58.7,30.27,South,180,4.0,6.3,87,0.00,,OVC090,0.29,VWS V14.01,2013-04-17 16:02:00,
2013-04-17 12:07:00,62.6,58.7,30.27,South,180,2.0,7.2,87,0.00,,OVC090,0.29,VWS V14.01,2013-04-17 16:07:00,
2013-04-17 12:12:00,62.8,58.5,30.27,SSW,202,2.5,2.9,86,0.00,,OVC090,0.29,VWS V14.01,2013-04-17 16:12:00,
2013-04-17 12:17:00,62.8,58.5,30.27,South,180,2.5,4.3,86,0.00,,OVC090,0.29,VWS V14.01,2013-04-17 16:17:00,
2013-04-17 12:22:00,62.8,58.2,30.27,NE,45,2.2,4.3,85,0.00,,OVC090,0.29,VWS V14.01,2013-04-17 16:22:00,
2013-04-17 12:27:00,63.0,58.4,30.27,East,90,1.1,3.4,85,0.00,,OVC090,0.29,VWS V14.01,2013-04-17 16:27:00,
2013-04-17 12:32:00,63.0,58.4,30.27,North,0,2.7,4.3,85,0.00,,OVC090,0.29,VWS V14.01,2013-04-17 16:32:00,
2013-04-17 12:37:00,63.3,58.7,30.27,North,0,2.5,3.4,85,0.00,,OVC090,0.29,VWS V14.01,2013-04-17 16:37:00,
2013-04-17 12:42:00,63.5,58.6,30.27,NE,45,2.2,2.5,84,0.00,,OVC090,0.29,VWS V14.01,2013-04-17 16:42:00,
2013-04-17 12:47:00,63.7,58.8,30.27,North,0,2.5,2.9,84,0.00,,OVC090,0.29,VWS V14.01,2013-04-17 16:47:00,
2013-04-17 12:52:00,64.0,59.1,30.27,North,0,1.6,2.7,84,0.00,,OVC090,0.29,VWS V14.01,2013-04-17 16:52:00,
2013-04-17 12:57:00,64.4,59.1,30.27,East,90,2.0,2.9,83,0.00,,OVC090,0.29,VWS V14.01,2013-04-17 16:57:00,
2013-04-17 13:02:00,64.8,59.5,30.27,SW,225,0.0,3.4,83,0.00,,SCT005,0.29,VWS V14.01,2013-04-17 17:02:00,
2013-04-17 13:07:00,65.8,60.5,30.27,NW,315,0.9,2.0,83,0.00,,SCT005,0.29,VWS V14.01,2013-04-17 17:07:00,
2013-04-17 13:12:00,66.2,59.9,30.27,SE,135,3.4,3.4,80,0.00,,SCT005,0.29,VWS V14.01,2013-04-17 17:12:00,
2013-04-17 13:17:00,66.4,59.3,30.27,SSE,158,2.5,3.4,78,0.00,,SCT005,0.29,VWS V14.01,2013-04-17 17:17:00,
2013-04-17 13:22:00,66.6,58.4,30.27,SSW,202,3.6,3.6,75,0.00,,SCT005,0.29,VWS V14.01,2013-04-17 17:22:00,
2013-04-17 13:27:00,66.2,58.0,30.27,West,270,1.6,6.0,75,0.00,,SCT005,0.29,VWS V14.01,2013-04-17 17:27:00,
2013-04-17 13:32:00,66.6,57.7,30.24,East,90,1.3,6.5,73,0.00,,SCT005,0.29,VWS V14.01,2013-04-17 17:32:00,
2013-04-17 13:37:00,67.3,58.3,30.24,West,270,2.7,3.6,73,0.00,,SCT005,0.29,VWS V14.01,2013-04-17 17:37:00,
2013-04-17 13:42:00,67.1,57.4,30.24,SSE,158,4.3,6.0,71,0.00,,SCT005,0.29,VWS V14.01,2013-04-17 17:42:00,
2013-04-17 13:47:00,66.9,57.2,30.21,West,270,2.7,4.9,71,0.00,,SCT005,0.29,VWS V14.01,2013-04-17 17:47:00,
2013-04-17 13:52:00,67.6,57.9,30.21,NW,315,2.9,4.5,71,0.00,,SCT005,0.29,VWS V14.01,2013-04-17 17:52:00,
2013-04-17 13:57:00,67.1,57.0,30.21,NW,315,2.2,5.8,70,0.00,,SCT005,0.29,VWS V14.01,2013-04-17 17:57:00,
2013-04-17 14:02:00,67.6,57.5,30.27,NW,315,0.9,3.6,70,0.00,,BKN012,0.29,VWS V14.01,2013-04-17 18:02:00,
2013-04-17 14:07:00,68.2,57.6,30.27,East,90,2.0,5.6,69,0.00,,BKN012,0.29,VWS V14.01,2013-04-17 18:07:00,
2013-04-17 14:12:00,69.4,58.4,30.27,NE,45,1.6,2.9,68,0.00,,BKN012,0.29,VWS V14.01,2013-04-17 18:12:00,
2013-04-17 14:17:00,70.5,59.0,30.24,NNE,22,0.0,3.1,67,0.00,,BKN012,0.29,VWS V14.01,2013-04-17 18:17:00,
2013-04-17 14:22:00,71.1,57.8,30.24,East,90,2.0,2.9,63,0.00,,BKN012,0.29,VWS V14.01,2013-04-17 18:22:00,
2013-04-17 14:27:00,71.2,56.2,30.24,South,180,2.9,3.4,59,0.00,,BKN012,0.29,VWS V14.01,2013-04-17 18:27:00,
2013-04-17 14:32:00,71.6,57.5,30.24,East,90,1.1,3.6,61,0.00,,BKN012,0.29,VWS V14.01,2013-04-17 18:32:00,
2013-04-17 14:37:00,73.8,58.5,30.24,North,0,2.5,2.7,59,0.00,,BKN012,0.29,VWS V14.01,2013-04-17 18:37:00,
2013-04-17 14:42:00,74.7,57.9,30.24,WNW,292,1.3,4.0,56,0.00,,BKN012,0.29,VWS V14.01,2013-04-17 18:42:00,
2013-04-17 14:47:00,76.3,59.5,30.24,NW,315,0.0,2.9,56,0.00,,BKN012,0.29,VWS V14.01,2013-04-17 18:47:00,
2013-04-17 14:52:00,75.9,57.0,30.24,NNW,338,2.0,5.4,52,0.00,,BKN012,0.29,VWS V14.01,2013-04-17 18:52:00,
2013-04-17 14:57:00,76.5,55.9,30.24,North,0,2.9,4.0,49,0.00,,BKN012,0.29,VWS V14.01,2013-04-17 18:57:00,
2013-04-17 15:02:00,77.7,57.6,30.24,SSW,202,2.2,4.3,50,0.00,,CLR,0.29,VWS V14.01,2013-04-17 19:02:00,
2013-04-17 15:07:00,76.1,56.1,30.24,SW,225,0.9,3.8,50,0.00,,CLR,0.29,VWS V14.01,2013-04-17 19:07:00,
2013-04-17 15:12:00,77.0,55.8,30.24,SW,225,2.9,3.6,48,0.00,,CLR,0.29,VWS V14.01,2013-04-17 19:12:00,
2013-04-17 15:17:00,77.7,55.9,30.21,West,270,0.9,3.4,47,0.00,,CLR,0.29,VWS V14.01,2013-04-17 19:17:00,
2013-04-17 15:22:00,77.0,54.7,30.21,SW,225,1.1,4.0,46,0.00,,CLR,0.29,VWS V14.01,2013-04-17 19:22:00,
2013-04-17 15:27:00,76.5,53.6,30.21,South,180,2.0,4.3,45,0.00,,CLR,0.29,VWS V14.01,2013-04-17 19:27:00,
2013-04-17 15:32:00,77.2,54.2,30.18,SE,135,0.0,5.6,45,0.00,,CLR,0.29,VWS V14.01,2013-04-17 19:32:00,
2013-04-17 15:37:00,78.1,55.0,30.18,SW,225,2.7,2.7,45,0.00,,CLR,0.29,VWS V14.01,2013-04-17 19:37:00,
2013-04-17 15:42:00,76.8,53.9,30.18,West,270,2.5,3.4,45,0.00,,CLR,0.29,VWS V14.01,2013-04-17 19:42:00,
2013-04-17 15:47:00,76.1,52.6,30.18,SW,225,2.0,4.7,44,0.00,,CLR,0.29,VWS V14.01,2013-04-17 19:47:00,
2013-04-17 15:52:00,76.3,53.4,30.18,West,270,3.1,3.6,45,0.00,,CLR,0.29,VWS V14.01,2013-04-17 19:52:00,
2013-04-17 15:57:00,76.6,54.3,30.18,West,270,1.1,2.7,46,0.00,,CLR,0.29,VWS V14.01,2013-04-17 19:57:00,
2013-04-17 16:02:00,78.3,55.2,30.21,West,270,0.9,1.3,45,0.00,,CLR,0.29,VWS V14.01,2013-04-17 20:02:00,
2013-04-17 16:07:00,78.8,55.1,30.21,NW,315,2.0,2.7,44,0.00,,CLR,0.29,VWS V14.01,2013-04-17 20:07:00,
2013-04-17 16:12:00,79.2,55.4,30.21,WNW,292,0.9,2.2,44,0.00,,CLR,0.29,VWS V14.01,2013-04-17 20:12:00,
2013-04-17 16:17:00,79.2,54.1,30.21,WSW,248,0.0,2.5,42,0.00,,CLR,0.29,VWS V14.01,2013-04-17 20:17:00,
2013-04-17 16:22:00,78.3,53.3,30.21,WSW,248,1.6,2.5,42,0.00,,CLR,0.29,VWS V14.01,2013-04-17 20:22:00,
2013-04-17 16:27:00,78.6,54.3,30.21,WSW,248,0.0,2.0,43,0.00,,CLR,0.29,VWS V14.01,2013-04-17 20:27:00,
2013-04-17 16:32:00,78.6,53.6,30.21,SSW,202,2.5,2.5,42,0.00,,CLR,0.00,VWS V14.01,2013-04-17 20:32:00,
2013-04-17 16:37:00,79.0,54.0,30.21,WNW,292,1.6,3.4,42,0.00,,CLR,0.29,VWS V14.01,2013-04-17 20:37:00,
2013-04-17 16:42:00,79.7,53.9,30.21,WSW,248,0.0,2.2,41,0.00,,CLR,0.29,VWS V14.01,2013-04-17 20:42:00,
2013-04-17 16:47:00,80.6,54.8,30.21,NNE,22,0.0,1.6,41,0.00,,CLR,0.29,VWS V14.01,2013-04-17 20:47:00,
2013-04-17 16:52:00,81.5,55.5,30.21,West,270,0.0,2.0,41,0.00,,CLR,0.29,VWS V14.01,2013-04-17 20:52:00,
2013-04-17 16:57:00,82.0,56.0,30.21,NE,45,1.3,1.6,41,0.00,,CLR,0.00,VWS V14.01,2013-04-17 20:57:00,
2013-04-17 17:02:00,81.7,55.0,30.18,North,0,0.0,2.2,40,0.00,,CLR,0.29,VWS V14.01,2013-04-17 21:02:00,
2013-04-17 17:07:00,81.5,54.9,30.18,WNW,292,0.9,1.6,40,0.00,,CLR,0.29,VWS V14.01,2013-04-17 21:07:00,
2013-04-17 17:12:00,79.7,53.3,30.18,SW,225,2.0,3.8,40,0.00,,CLR,0.29,VWS V14.01,2013-04-17 21:12:00,
2013-04-17 17:17:00,81.7,55.0,30.18,SW,225,0.0,2.9,40,0.00,,CLR,0.29,VWS V14.01,2013-04-17 21:17:00,
2013-04-17 17:22:00,82.8,55.3,30.18,WNW,292,2.0,2.9,39,0.00,,CLR,0.29,VWS V14.01,2013-04-17 21:22:00,
2013-04-17 17:27:00,84.2,56.6,30.18,WNW,292,2.7,2.7,39,0.00,,CLR,0.29,VWS V14.01,2013-04-17 21:27:00,
2013-04-17 17:32:00,86.2,56.9,30.15,SW,225,1.1,2.7,37,0.00,,CLR,0.29,VWS V14.01,2013-04-17 21:32:00,
2013-04-17 17:37:00,82.4,52.8,30.15,SSE,158,1.6,3.6,36,0.00,,CLR,0.29,VWS V14.01,2013-04-17 21:37:00,
2013-04-17 17:42:00,81.9,54.5,30.15,SSE,158,2.9,3.8,39,0.00,,CLR,0.29,VWS V14.01,2013-04-17 21:42:00,
2013-04-17 17:47:00,79.3,53.6,30.15,East,90,0.0,3.8,41,0.00,,CLR,0.29,VWS V14.01,2013-04-17 21:47:00,
2013-04-17 17:52:00,78.6,53.6,30.15,SE,135,1.3,2.0,42,0.00,,CLR,0.29,VWS V14.01,2013-04-17 21:52:00,
2013-04-17 17:57:00,77.5,53.9,30.15,ESE,112,0.0,2.5,44,0.00,,CLR,0.29,VWS V14.01,2013-04-17 21:57:00,
2013-04-17 18:02:00,76.5,53.6,30.15,NE,45,1.6,2.5,45,0.00,,CLR,0.29,VWS V14.01,2013-04-17 22:02:00,
2013-04-17 18:07:00,76.1,54.4,30.15,East,90,1.6,2.2,47,0.00,,CLR,0.29,VWS V14.01,2013-04-17 22:07:00,
2013-04-17 18:12:00,75.7,54.7,30.15,ESE,112,0.0,2.5,48,0.00,,CLR,0.29,VWS V14.01,2013-04-17 22:12:00,
2013-04-17 18:17:00,76.6,55.5,30.12,WSW,248,0.0,2.5,48,0.00,,CLR,0.29,VWS V14.01,2013-04-17 22:17:00,
2013-04-17 18:22:00,77.2,56.0,30.12,SSW,202,0.0,3.6,48,0.00,,CLR,0.29,VWS V14.01,2013-04-17 22:22:00,
2013-04-17 18:27:00,77.7,54.7,30.12,South,180,2.5,3.1,45,0.00,,CLR,0.29,VWS V14.01,2013-04-17 22:27:00,
2013-04-17 18:32:00,75.9,53.1,30.15,SW,225,2.0,4.7,45,0.00,,CLR,0.29,VWS V14.01,2013-04-17 22:32:00,
2013-04-17 18:37:00,75.4,52.0,30.15,South,180,2.5,4.9,44,0.00,,CLR,0.29,VWS V14.01,2013-04-17 22:37:00,
2013-04-17 18:42:00,75.0,53.4,30.15,SSE,158,3.1,3.8,47,0.00,,CLR,0.29,VWS V14.01,2013-04-17 22:42:00,
2013-04-17 18:47:00,74.5,53.0,30.15,South,180,2.5,4.3,47,0.00,,CLR,0.29,VWS V14.01,2013-04-17 22:47:00,
2013-04-17 18:52:00,74.5,54.1,30.15,ESE,112,2.9,3.4,49,0.00,,CLR,0.29,VWS V14.01,2013-04-17 22:52:00,
2013-04-17 18:57:00,73.9,53.0,30.15,WSW,248,1.3,4.7,48,0.00,,CLR,0.29,VWS V14.01,2013-04-17 22:57:00,
2013-04-17 19:02:00,73.0,53.9,30.15,South,180,2.0,4.3,51,0.00,,CLR,0.29,VWS V14.01,2013-04-17 23:02:00,
2013-04-17 19:07:00,73.0,53.9,30.15,SE,135,0.9,2.9,51,0.00,,CLR,0.29,VWS V14.01,2013-04-17 23:07:00,
2013-04-17 19:12:00,73.0,54.4,30.15,SSE,158,1.3,2.2,52,0.00,,CLR,0.29,VWS V14.01,2013-04-17 23:12:00,
2013-04-17 19:17:00,72.9,55.3,30.15,SSW,202,0.9,1.6,54,0.00,,CLR,0.29,VWS V14.01,2013-04-17 23:17:00,
2013-04-17 19:22:00,72.7,55.1,30.15,SW,225,1.6,1.6,54,0.00,,CLR,0.29,VWS V14.01,2013-04-17 23:22:00,
2013-04-17 19:27:00,71.8,55.8,30.15,SW,225,1.1,2.5,57,0.00,,CLR,0.29,VWS V14.01,2013-04-17 23:27:00,
2013-04-17 19:32:00,70.9,55.4,30.15,SSW,202,1.1,1.3,58,0.00,,CLR,0.29,VWS V14.01,2013-04-17 23:32:00,
2013-04-17 19:37:00,70.2,55.2,30.15,ESE,112,0.0,1.6,59,0.00,,CLR,0.29,VWS V14.01,2013-04-17 23:37:00,
2013-04-17 19:42:00,69.4,55.4,30.15,ESE,112,0.0,0.0,61,0.00,,CLR,0.29,VWS V14.01,2013-04-17 23:42:00,
2013-04-17 19:47:00,68.4,54.8,30.15,ESE,112,0.0,0.9,62,0.00,,CLR,0.29,VWS V14.01,2013-04-17 23:47:00,
2013-04-17 19:52:00,67.5,54.9,30.15,ESE,112,0.0,0.0,64,0.00,,CLR,0.29,VWS V14.01,2013-04-17 23:52:00,
2013-04-17 19:57:00,66.6,54.9,30.15,ESE,112,0.0,0.0,66,0.00,,CLR,0.29,VWS V14.01,2013-04-17 23:57:00,
2013-04-17 20:02:00,65.5,54.2,30.15,SSW,202,0.0,0.0,67,0.00,,CLR,0.29,VWS V14.01,2013-04-18 00:02:00,
2013-04-17 20:07:00,64.6,54.2,30.15,SSW,202,0.0,0.0,69,0.00,,CLR,0.29,VWS V14.01,2013-04-18 00:07:00,
2013-04-17 20:12:00,63.7,53.7,30.15,SE,135,0.0,0.0,70,0.00,,CLR,0.29,VWS V14.01,2013-04-18 00:12:00,
2013-04-17 20:17:00,62.8,53.2,30.15,South,180,0.0,0.0,71,0.00,,CLR,0.29,VWS V14.01,2013-04-18 00:17:00,
2013-04-17 20:22:00,62.1,54.4,30.15,ENE,68,1.6,2.0,76,0.00,,CLR,0.29,VWS V14.01,2013-04-18 00:22:00,
2013-04-17 20:27:00,61.5,53.2,30.15,ENE,68,0.0,1.6,74,0.00,,CLR,0.29,VWS V14.01,2013-04-18 00:27:00,
2013-04-17 20:32:00,61.0,52.7,30.15,SSW,202,0.0,0.0,74,0.00,,CLR,0.29,VWS V14.01,2013-04-18 00:32:00,
2013-04-17 20:37:00,60.4,53.2,30.15,SSW,202,0.0,0.0,77,0.00,,CLR,0.29,VWS V14.01,2013-04-18 00:37:00,
2013-04-17 20:42:00,59.7,53.2,30.15,SW,225,0.0,0.0,79,0.00,,CLR,0.29,VWS V14.01,2013-04-18 00:42:00,
2013-04-17 20:47:00,59.2,52.7,30.15,SW,225,0.0,0.0,79,0.00,,CLR,0.29,VWS V14.01,2013-04-18 00:47:00,
2013-04-17 20:52:00,58.8,52.7,30.15,SW,225,0.0,0.0,80,0.00,,CLR,0.29,VWS V14.01,2013-04-18 00:52:00,
2013-04-17 20:57:00,58.3,52.5,30.15,SW,225,0.0,0.0,81,0.00,,CLR,0.29,VWS V14.01,2013-04-18 00:57:00,
2013-04-17 21:02:00,57.9,52.5,30.15,East,90,0.0,0.0,82,0.00,,CLR,0.29,VWS V14.01,2013-04-18 01:02:00,
2013-04-17 21:07:00,57.6,52.4,30.15,East,90,0.0,0.0,83,0.00,,CLR,0.29,VWS V14.01,2013-04-18 01:07:00,
2013-04-17 21:12:00,57.2,52.1,30.15,East,90,0.0,0.0,83,0.00,,CLR,0.29,VWS V14.01,2013-04-18 01:12:00,
2013-04-17 21:17:00,57.0,52.2,30.15,SSE,158,0.0,0.0,84,0.00,,CLR,0.29,VWS V14.01,2013-04-18 01:17:00,
2013-04-17 21:22:00,56.8,52.1,30.15,SSE,158,0.0,0.0,84,0.00,,CLR,0.29,VWS V14.01,2013-04-18 01:22:00,
2013-04-17 21:27:00,56.3,51.9,30.15,SSE,158,0.0,0.0,85,0.00,,CLR,0.29,VWS V14.01,2013-04-18 01:27:00,
2013-04-17 21:32:00,56.1,52.0,30.18,SSE,158,0.0,0.0,86,0.00,,CLR,0.29,VWS V14.01,2013-04-18 01:32:00,
2013-04-17 21:37:00,55.8,51.6,30.18,South,180,0.0,0.0,86,0.00,,CLR,0.29,VWS V14.01,2013-04-18 01:37:00,
2013-04-17 21:42:00,55.6,51.5,30.18,SSW,202,0.0,0.0,86,0.00,,CLR,0.29,VWS V14.01,2013-04-18 01:42:00,
2013-04-17 21:47:00,55.4,51.6,30.21,SSW,202,0.0,0.0,87,0.00,,CLR,0.29,VWS V14.01,2013-04-18 01:47:00,
2013-04-17 21:52:00,55.2,51.7,30.21,South,180,0.0,0.0,88,0.00,,CLR,0.29,VWS V14.01,2013-04-18 01:52:00,
2013-04-17 21:57:00,54.9,51.4,30.21,South,180,0.0,0.0,88,0.00,,CLR,0.29,VWS V14.01,2013-04-18 01:57:00,
2013-04-17 22:02:00,54.7,51.5,30.18,SW,225,0.0,0.0,89,0.00,,CLR,0.29,VWS V14.01,2013-04-18 02:02:00,
2013-04-17 22:07:00,55.0,51.9,30.18,ESE,112,1.1,2.5,89,0.00,,CLR,0.29,VWS V14.01,2013-04-18 02:07:00,
2013-04-17 22:12:00,54.7,51.8,30.18,East,90,0.0,1.3,90,0.00,,CLR,0.29,VWS V14.01,2013-04-18 02:12:00,
2013-04-17 22:17:00,54.3,51.5,30.18,East,90,0.0,0.0,90,0.00,,CLR,0.29,VWS V14.01,2013-04-18 02:17:00,
2013-04-17 22:22:00,54.5,51.9,30.18,ENE,68,0.0,0.0,91,0.00,,CLR,0.29,VWS V14.01,2013-04-18 02:22:00,
2013-04-17 22:27:00,53.8,50.9,30.18,ENE,68,0.0,0.0,90,0.00,,CLR,0.29,VWS V14.01,2013-04-18 02:27:00,
2013-04-17 22:32:00,53.6,51.0,30.18,ENE,68,0.0,0.0,91,0.00,,CLR,0.29,VWS V14.01,2013-04-18 02:32:00,
2013-04-17 22:37:00,53.8,51.2,30.18,ENE,68,0.0,0.0,91,0.00,,CLR,0.29,VWS V14.01,2013-04-18 02:37:00,
2013-04-17 22:42:00,53.8,51.2,30.18,South,180,2.7,2.7,91,0.00,,CLR,0.29,VWS V14.01,2013-04-18 02:42:00,
2013-04-17 22:47:00,54.0,51.7,30.15,SSW,202,0.0,2.9,92,0.00,,CLR,0.29,VWS V14.01,2013-04-18 02:47:00,
2013-04-17 22:52:00,53.2,51.3,30.15,SSW,202,0.0,0.0,93,0.00,,CLR,0.29,VWS V14.01,2013-04-18 02:52:00,
2013-04-17 22:57:00,52.9,50.9,30.15,SSW,202,0.0,0.0,93,0.00,,CLR,0.29,VWS V14.01,2013-04-18 02:57:00,
2013-04-17 23:02:00,52.7,50.7,30.15,SSW,202,0.0,0.0,93,0.00,,CLR,0.29,VWS V14.01,2013-04-18 03:02:00,
2013-04-17 23:03:00,51.6,50.2,30.15,West,270,0.0,0.0,95,0.00,,CLR,0.29,VWS V14.01,2013-04-18 03:03:00,
2013-04-17 23:04:00,51.6,50.2,30.15,West,270,0.0,0.0,95,0.00,,CLR,0.29,VWS V14.01,2013-04-18 03:04:00,
2013-04-17 23:05:00,51.6,50.2,30.15,West,270,0.0,0.0,95,0.00,,CLR,0.29,VWS V14.01,2013-04-18 03:05:00,
2013-04-17 23:06:00,51.6,50.2,30.15,WNW,292,0.0,0.0,95,0.00,,CLR,0.29,VWS V14.01,2013-04-18 03:06:00,
2013-04-17 23:07:00,52.9,50.9,30.15,SW,225,0.0,2.0,93,0.00,,CLR,0.29,VWS V14.01,2013-04-18 03:07:00,
2013-04-17 23:08:00,51.6,50.2,30.15,WNW,292,0.0,0.0,95,0.00,,CLR,0.29,VWS V14.01,2013-04-18 03:08:00,
2013-04-17 23:12:00,52.9,50.9,30.15,South,180,1.6,2.2,93,0.00,,CLR,0.29,VWS V14.01,2013-04-18 03:12:00,
2013-04-17 23:17:00,53.8,52.1,30.15,WSW,248,1.1,2.0,94,0.00,,CLR,0.29,VWS V14.01,2013-04-18 03:17:00,
2013-04-17 23:22:00,53.1,51.4,30.15,WNW,292,0.0,2.2,94,0.00,,CLR,0.29,VWS V14.01,2013-04-18 03:22:00,
2013-04-17 23:27:00,53.1,51.4,30.15,WNW,292,0.0,0.0,94,0.00,,CLR,0.29,VWS V14.01,2013-04-18 03:27:00,
2013-04-17 23:32:00,53.1,51.4,30.15,WNW,292,0.0,0.0,94,0.00,,CLR,0.29,VWS V14.01,2013-04-18 03:32:00,
2013-04-17 23:37:00,53.1,51.4,30.15,WNW,292,0.0,0.0,94,0.00,,CLR,0.29,VWS V14.01,2013-04-18 03:37:00,
2013-04-17 23:42:00,51.6,50.0,30.15,WNW,292,0.0,0.0,94,0.00,,CLR,0.29,VWS V14.01,2013-04-18 03:42:00,
2013-04-17 23:47:00,51.6,50.2,30.15,West,270,0.0,0.0,95,0.00,,CLR,0.29,VWS V14.01,2013-04-18 03:47:00,
2013-04-17 23:52:00,51.6,50.2,30.15,West,270,0.0,0.0,95,0.00,,CLR,0.29,VWS V14.01,2013-04-18 03:52:00,
2013-04-17 23:57:00,51.6,50.2,30.15,West,270,0.0,0.0,95,0.00,,CLR,0.29,VWS V14.01,2013-04-18 03:57:00,